Location: Unspecified
(41.5000°N, 0.0000°E)
Time: 17:12:36
(UTC+00:00)

deb Explorer IX - Pass Details

Date: 18 June 2019
Orbit: 539 x 1112 km, 38.8° (Epoch: 21 July)

Event Time Altitude Azimuth Distance (km) Brightness Sun altitude
Rises 20:07:38 0° 279° (W) 3,810 ? -5.6°
Reaches altitude 10° 20:10:42 10° 271° (W) 2,785 ? -6.0°
Maximum altitude 20:16:41 35° 209° (SSW) 1,449 ? -6.9°
Drops below altitude 10° 20:21:54 10° 145° (SE) 2,425 ? -7.6°
Enters shadow 20:22:15 - 143° (SE) 2,534 ? -7.7°
